Regional Weather Roundup
Issued by NWS

Home | Current Version | Previous Version | Text Only | Print | Product List | Glossary On
Versions: 1 2 3 4 5 6 7 8 9 10 11 12 13 14 15 16 17 18 19 20 21 22 23 24 25 26 27 28
000
ASUS46 KSEW 191010
RWRWA

WASHINGTON REGIONAL WEATHER ROUNDUP
NATIONAL WEATHER SERVICE SEATTLE WA
300 AM PDT THU APR 19 2018

NOTE:"FAIR" INDICATES FEW OR NO CLOUDS BELOW 12,000 FEET WITH NO
SIGNIFICANT WEATHER AND/OR OBSTRUCTIONS TO VISIBILITY.

WAZ507-509-555>559-191100-
SEATTLE, TACOMA, EVERETT, AND VICINITY

CITY           SKY/WX    TMP DP  RH WIND       PRES   REMARKS
EVERETT        FAIR      42  40  92 NW3       30.21S
BOEING FIELD   FAIR      45  41  86 CALM      30.22R
RENTON         FAIR      44  42  93 CALM      30.21S
SEATAC AIRPORT FAIR      45  40  82 N6        30.21R
JBLM-MCCHORD   CLEAR     38  38 100 S3        30.21S FOG
PUYALLUP       FAIR      39  39 100 CALM      30.20S FOG
BREMERTON      FAIR      36  34  92 CALM      30.21S
JBLM-FT LEWIS  FAIR      39  39 100 SE3       30.20S
TACOMA NARROWS FAIR      44  39  82 N3        30.21R
$$

WAZ001-503-506-510-514-515-191100-
NORTH INTERIOR

CITY           SKY/WX    TMP DP  RH WIND       PRES   REMARKS
BELLINGHAM     CLOUDY    41  39  93 CALM      30.21S
FRIDAY HARBOR  FAIR      36  33  89 CALM      30.21F
EASTSOUND      FAIR      41  39  93 CALM      30.20F
PORT ANGELES   FAIR      39  35  86 SW8       30.21F
EDIZ HOOK      FAIR      42  37  82 W5        30.22S
PORT TOWNSEND  FAIR      34  34 100 CALM      30.22F
NAS WHIDBEY    FAIR      41  39  93 E5        30.25S
ARLINGTON      FAIR      39  38  96 N5        30.22S
BURLINGTON     CLEAR     43  39  87 NE8       30.22S
$$

WAZ020-022-039-040-504-511-512-191100-
SOUTHWEST INTERIOR

CITY           SKY/WX    TMP DP  RH WIND       PRES   REMARKS
SHELTON        FAIR      34  31  88 CALM      30.19S
OLYMPIA        FAIR      36  35  96 CALM      30.21S
CHEHALIS       FAIR      39  39 100 CALM      30.21S
KELSO          FAIR      40  39  97 CALM      30.20S
VANCOUVER      FAIR      40  38  93 CALM      30.17S
SCAPPOOSE, OR  FAIR      41  37  86 N3        30.17S
PORTLAND, OR   FAIR      44  41  89 CALM      30.18S
$$

WAZ021-516-517-191100-
WASHINGTON COAST

CITY           SKY/WX    TMP DP  RH WIND       PRES   REMARKS
FORKS          FAIR      34  32  92 CALM      30.22R
HOQUIAM        FAIR      40  37  89 CALM      30.20S
ASTORIA, OR    FAIR      39  38  96 S3        30.19S
$$

WAZ019-023-024-040-567>569-191100-
CASCADE MOUNTAINS AND COLUMBIA GORGE

CITY           SKY/WX    TMP DP  RH WIND       PRES   REMARKS
STAMPEDE PASS  NOT AVBL
TROUTDALE, OR  FAIR      43  38  82 SE5       30.17S
HOOD RIVER, OR CLOUDY    43  36  75 SW3       30.15S
THE DALLES, OR FAIR      48  39  71 NW13      30.13R
$$

WAZ026-027-041>044-520-521-191100-
EAST SLOPES

CITY           SKY/WX    TMP DP  RH WIND       PRES   REMARKS
OMAK           FAIR      39  32  76 N12       30.18S
WENATCHEE      FAIR      40  33  76 W7        30.17R
ELLENSBURG     FAIR      35  30  82 NE5       30.14R
YAKIMA         FAIR      37  29  72 W9        30.14S
SUNNYSIDE ARPT FAIR      48  28  45 W8        30.11R
YAKIMA TC      FAIR      42  30  62 E12       30.12R
$$

WAZ028-034-035-191100-
COLUMBIA BASIN

CITY           SKY/WX    TMP DP  RH WIND       PRES   REMARKS
EPHRATA        FAIR      45  26  47 N12       30.13S
MOSES LAKE     FAIR      36  29  75 N9        30.13S
PASCO          FAIR      43  35  73 N13       30.11R
RICHLAND ARPT  FAIR      48  32  54 NW9       30.12R
HERMISTON, OR  CLOUDY    45  38  76 W5        30.08R
$$

WAZ036>038-191100-
NORTHEAST WASHINGTON

CITY           SKY/WX    TMP DP  RH WIND       PRES   REMARKS
SPOKANE GEIGER FAIR      38  29  70 NE5       30.11S
SPOKANE FELTS  FAIR      34  30  85 CALM      30.12S
FAIRCHILD AFB  CLEAR     36  29  74 N6        30.10R
COEURDALENE,ID FAIR      35  29  78 NE10      30.11F WCI  27
DEER PARK      FAIR      35  29  78 NW3       30.12S
$$

WAZ029>033-191100-
SOUTHEAST WASHINGTON

CITY           SKY/WX    TMP DP  RH WIND       PRES   REMARKS
PULLMAN        FAIR      39  31  72 CALM      30.07S
LEWISTON, ID   FAIR      45  33  63 S7        30.06S
WALLA WALLA    MOCLDY    47  37  68 S6        30.07S
PENDLETON, OR  CLOUDY    45  33  63 VRB3      30.07R
$$




USA.gov is the U.S. government's official web portal to all federal, state and local government web resources and services.